Location: Proctor
(47.8934°N, 114.3048°W)
Time: 11:35:31
(UTC+00:00)

Transit 4A - Pass Details

Date: 02 July 2024
Orbit: 870 x 973 km, 66.8° (Epoch: 13 July)

Event Time Altitude Azimuth Distance (km) Brightness Sun altitude
Rises 08:14:17 0° 310° (NW) 3,470 11.3 -18.7°
Reaches altitude 10° 08:18:44 10° 341° (NNW) 2,544 11.1 -18.6°
Maximum altitude 08:20:50 12° 3° (N) 2,420 11.3 -18.6°
Drops below altitude 10° 08:22:57 10° 24° (NNE) 2,561 11.4 -18.5°
Sets 08:27:28 0° 55° (NE) 3,525 11.6 -18.4°
